This is the latest recevied weather packets stored in our database for station/object W5CDN. If no packets are shown the sender has not sent any weather packets the latest 10 day(s).
| Time | Temp. | Humidity | Pressure | Rain* | Wind** | Luminosity | Snow |
|---|---|---|---|---|---|---|---|
| 1788048836 | 35.56° C | 41% | 1012.6 hPa | 0 mm | - | - | - |
| 1788048536 | 35.56° C | 41% | 1012.6 hPa | 0 mm | - | - | - |
| 1788048236 | 35.56° C | 41% | 1012.7 hPa | 0 mm | - | - | - |
| 1788047936 | 36.11° C | 41% | 1012.7 hPa | 0 mm | - | - | - |
| 1788047636 | 36.11° C | 41% | 1012.6 hPa | 0 mm | - | - | - |
| 1788047336 | 36.67° C | 40% | 1012.7 hPa | 0 mm | - | - | - |
| 1788047036 | 36.67° C | 39% | 1012.5 hPa | 0 mm | - | - | - |
| 1788046736 | 36.67° C | 40% | 1012.6 hPa | 0 mm | - | - | - |
| 1788046436 | 36.67° C | 39% | 1012.4 hPa | 0 mm | - | - | - |
| 1788046136 | 37.22° C | 38% | 1012.5 hPa | 0 mm | - | - | - |
| 1788045836 | 37.22° C | 38% | 1012.4 hPa | 0 mm | - | - | - |
| 1788045536 | 37.22° C | 37% | 1012.3 hPa | 0 mm | - | - | - |
| 1788045236 | 37.22° C | 38% | 1012.4 hPa | 0 mm | - | - | - |
| 1788044936 | 37.22° C | 37% | 1012.6 hPa | 0 mm | - | - | - |
| 1788044636 | 37.22° C | 37% | 1012.4 hPa | 0 mm | - | - | - |
| 1788044336 | 36.67° C | 38% | 1012.6 hPa | 0 mm | - | - | - |
| 1788044036 | 36.67° C | 38% | 1012.5 hPa | 0 mm | - | - | - |
| 1788043736 | 37.78° C | 37% | 1012.6 hPa | 0 mm | - | - | - |
| 1788043436 | 37.78° C | 37% | 1012.6 hPa | 0 mm | - | - | - |
| 1788043136 | 37.78° C | 37% | 1012.6 hPa | 0 mm | - | - | - |
| 1788042836 | 37.78° C | 37% | 1012.7 hPa | 0 mm | - | - | - |
| 1788042536 | 37.22° C | 37% | 1012.7 hPa | 0 mm | - | - | - |
| 1788042236 | 37.78° C | 37% | 1012.6 hPa | 0 mm | - | - | - |
| 1788041944 | 37.78° C | 37% | 1012.9 hPa | 0 mm | - | - | - |
| 1788041636 | 36.67° C | 38% | 1012.8 hPa | 0 mm | - | - | - |
* Rain latest hour (hover to see other rain measurements)
** Current wind speed in m/s (hover to see current wind gust speed)